Home > Time Zones > World Clock > Weather > China > Wuhan > Past weeks

Flag for China Weather past 2 weeks in Wuhan, Hubei, China

Now
73 °F

Fog.


Feels Like: 70 °F
Forecast: 73 / 88 °F
Wind: No wind

Location: Wuhan Airport

Current Time: May 27, 2015 at 10:44:30 PM

Latest Report: May 27, 2015 at 10:00 PM


Visibility: 1 mi

Pressure: 29.65 "Hg

Humidity: 94%

Dew point: 72 °F

Location of WuhanLocation

Historic Weather in Wuhan — Graph

°F

Wuhan temperature yesterday

Maximum temperature yesterday: 77 °F (at 3:00 PM)
Minimum temperature yesterday: 70 °F (at 12:00 AM)
Average temperature yesterday: 72 °F

Past Weeks' High & Low Weather Summary

 TemperatureHumidityPressure
High86 °F (May 13, 1:00 PM)100% (May 15, 12:00 AM)29.95 "Hg (May 15, 12:00 AM)
Low64 °F (May 24, 4:00 AM)34% (May 20, 6:00 PM)29.59 "Hg (May 18, 5:00 AM)
Average75 °F76%29.76 "Hg
* Reported May 12 9:00 PM — May 27 9:00 PM, Wuhan, Weather by CustomWeather, © 2015

Note: Actual official high and low records may vary slightly from our data, if they occured in-between our weather recording intervals... More about our weather records

Advertising

Wuhan weather history for previous 24 hours

 ConditionsComfort  
Time TempWeatherWind HumidityBarometerVisibility
9:00 PM
Wed, May 27
72 °FFog.No wind100%29.65 "Hg1 mi
8:00 PM73 °FFog.No wind94%29.62 "Hg1 mi
7:00 PM73 °FFog.1 mph94%29.62 "Hg1 mi
6:00 PM73 °FFog.No wind94%29.62 "Hg1 mi
5:00 PM73 °FFog.1 mph94%29.59 "Hg1 mi
4:00 PM73 °FFog.3 mph94%29.62 "Hg1 mi
3:00 PM73 °FFog.3 mph94%29.62 "Hg1 mi
2:00 PM72 °FFog.1 mph100%29.65 "Hg1 mi
1:00 PM72 °FFog.No wind94%29.65 "Hg1 mi
12:00 PM72 °FLight rain. Fog.1 mph94%29.68 "Hg1 mi
11:00 AM72 °FFog.1 mph94%29.68 "Hg1 mi
10:00 AM72 °FLight rain. Fog.1 mph94%29.68 "Hg1 mi
9:00 AM72 °FFog.No wind94%29.68 "Hg1 mi
8:00 AM70 °FLight rain. Fog.3 mph100%29.68 "Hg1 mi
7:00 AM70 °FLight rain. Fog.1 mph100%29.68 "Hg1 mi
6:00 AM70 °FFog.No wind100%29.65 "Hg1 mi
5:00 AM72 °FFog.No wind94%29.65 "Hg1 mi
4:00 AM72 °FFog.No wind94%29.65 "Hg1 mi
3:00 AM72 °FFog.No wind94%29.68 "Hg1 mi
2:00 AM72 °FFog.1 mph94%29.68 "Hg1 mi
1:00 AM72 °FFog.No wind94%29.68 "Hg1 mi
12:00 AM72 °FFog.No wind94%29.71 "Hg1 mi
11:00 PM
Tue, May 26
72 °FFog.No wind94%29.74 "Hg1 mi
10:00 PM72 °FFog.No wind94%29.74 "Hg1 mi
Weather by CustomWeather, © 2015

See weather overviewHow to use our weather pages